Location: Campillo
(40.8621°N, 4.2488°W)
Time: 00:45:04
(UTC+00:00)

SJ-6B - Pass Details

Date: 03 October 2021
Orbit: 508 x 581 km, 97.6° (Epoch: 16 October)

Event Time Altitude Azimuth Distance (km) Brightness Sun altitude
Exits shadow 19:01:13 15° 59° (ENE) 1,574 4.7 -13.2°
Drops below altitude 10° 19:03:10 10° 30° (NNE) 1,865 5.3 -13.6°
Sets 19:06:02 0° 8° (N) 2,752 6.4 -14.2°
